Regional Weather Roundup
Issued by NWS Albany, NY

Current Version | Previous Version | Graphics & Text | Print | Product List | Glossary Off
Versions: 1 2 3 4 5 6 7 8 9 10 11 12 13 14 15 16 17 18 19 20 21 22 23 24 25 26 27 28 29 30 31 32 33 34 35 36 37 38 39 40 41 42 43 44 45 46 47 48 49 50

403
ASUS41 KALY 240510
RWRALY

NEW YORK STATE HOURLY WEATHER ROUNDUP
NATIONAL WEATHER SERVICE ALBANY NY
100 AM EDT TUE APR 24 2018

NOTE: "FAIR" INDICATES FEW OR NO CLOUDS BELOW 12,000 FEET WITH NO
SIGNIFICANT WEATHER AND/OR NO OBSTRUCTIONS TO VISIBILITY.

NYZ032-033-038>043-046>054-057>066-NYZ062>081-082-084-240600-
EAST


CITY           SKY/WX    TMP DP  RH WIND       PRES   REMARKS
ALBANY         MOCLDY    53  24  32 S14       30.36S
GLENS FALLS    FAIR      43  27  53 S8        30.35R
POUGHKEEPSIE   FAIR      41  31  67 CALM      30.40F
NEWBURGH       CLEAR     45  32  61 CALM      30.41F
MONTGOMERY     FAIR      41  31  67 CALM      30.39F
WHITE PLAINS   FAIR      43  37  79 CALM      30.41F
ISLIP          FAIR      41  38  89 E5        30.43F
NEW YORK CITY  MOCLDY    50  42  74 S5        30.42F
CENTRAL PARK   FAIR      50  39  66 NE3       30.44F
$$

NYZ005>009-017-018-044>046-055-056-240600-
CENTRAL


CITY           SKY/WX    TMP DP  RH WIND       PRES   REMARKS
FULTON         FAIR      56  28  34 VRB3      30.25S
SYRACUSE       FAIR      55  32  41 S8        30.27S
ROME           FAIR      53  23  31 E8        30.31S
ELMIRA         FAIR      57  33  40 S10       30.29S
BINGHAMTON     FAIR      51  26  37 S8        30.31F
MONTICELLO     FAIR      44  24  45 SE7       30.39S
$$

NYZ026>034-041>043-087-240600-
NORTH


CITY           SKY/WX    TMP DP  RH WIND       PRES   REMARKS
WATERTOWN      FAIR      56  25  30 S7        30.23F
FORT DRUM      NOT AVBL
OGDENSBURG     FAIR      38  36  89 CALM      30.23F
MASSENA        FAIR      37  31  78 CALM      30.25F
SARANAC LAKE   FAIR      26  21  81 CALM      30.28S
PLATTSBURGH    FAIR      36  26  67 CALM      30.28S
$$

NYZ001>004-010>016-019>021-085-240600-
WEST


CITY           SKY/WX    TMP DP  RH WIND       PRES   REMARKS
NIAGARA FALLS  FAIR      56  35  45 S5        30.19S
BUFFALO        CLOUDY    61  37  41 S9        30.20F
DUNKIRK        FAIR      61  40  45 S16G25    30.19S
JAMESTOWN      FAIR      56  39  53 S12       30.23S
WELLSVILLE     FAIR      55  37  50 S9        30.28R
ROCHESTER      CLOUDY    60  37  42 SW7       30.22S
PENN YAN       FAIR      55  33  43 S8        30.27F
$$

             KEY
       WCI = WIND CHILL INDEX
       VSB = VISIBILITY
       HX  = HEAT INDEX
$$




USA.gov is the U.S. government's official web portal to all federal, state and local government web resources and services.